Location: Unspecified
(0.0000°N, 0.0000°E)
Time: 17:18:34
(UTC+00:00)

NOSS 3-4 (A) - Visible Passes

Search period start: 28 May 2023 00:00
Search period end: 07 June 2023 00:00
Orbit: 828 x 1383 km, 63.4° (Epoch: 22 April)

Date Brightness Start Highest point End Pass type
(mag) Time Alt. Az. Time Alt. Az. Time Alt. Az.
28 May 5.8 02:45:45 15° E 02:45:45 15° E 02:47:05 10° ENE visible
28 May 4.1 04:33:14 28° WNW 04:33:39 28° WNW 04:38:18 10° N visible
29 May 3.8 03:50:24 45° NNW 03:50:24 45° NNW 03:54:22 10° NNE visible
30 May 5.1 03:07:29 24° NE 03:07:29 24° NE 03:09:39 10° NNE visible
31 May 5.1 04:11:58 15° NW 04:11:58 15° NW 04:13:30 10° NNW visible
01 Jun 5.3 03:28:56 16° N 03:28:56 16° N 03:30:11 10° N visible
02 Jun 6.0 02:45:50 10° NNE 02:45:50 10° NNE 02:45:55 10° NNE visible
